When you browse on this site, cookies collect data to enhance your experience and personalize the content and advertising you see.
Visit our Privacy Policy to learn more. By continuing to use the site, you agree to this use of cookies and data.
  • In Lithuania
  • List of Countries
  • For 7 days
  • Water Temperature
  • Weather Map
  • Weather Widgets
  • user-avatar
    Login

    Hourly Weather La-Plata

    Today, 30 March, Monday

    Time Temperature Precipitation Wind Pressure Humidity
    00:00 +23°C° 0 mm 2 mps 761 mmHg 84%
    01:00 +21°C° 0 mm 3 mps 761 mmHg 88%
    02:00 +20°C° 0 mm 3 mps 761 mmHg 92%
    03:00 +20°C° 0 mm 3 mps 761 mmHg 92%
    04:00 +20°C° 0 mm 3 mps 761 mmHg 92%
    05:00 +20°C° 0 mm 3 mps 761 mmHg 92%
    06:00 +20°C° 0 mm 3 mps 762 mmHg 89%
    07:00 +21°C° 0 mm 3 mps 762 mmHg 86%
    08:00 +22°C° 0 mm 4 mps 762 mmHg 83%
    09:00 +25°C° 0 mm 3 mps 762 mmHg 72%
    10:00 +27°C° 0 mm 3 mps 762 mmHg 62%
    11:00 +29°C° 0 mm 3 mps 762 mmHg 51%
    12:00 +29°C° 0 mm 4 mps 762 mmHg 54%
    13:00 +28°C° 0 mm 5 mps 761 mmHg 58%
    14:00 +28°C° 0 mm 6 mps 761 mmHg 61%
    15:00 +27°C° 0 mm 6 mps 761 mmHg 64%
    16:00 +26°C° 0 mm 7 mps 761 mmHg 67%
    17:00 +24°C° 0 mm 7 mps 761 mmHg 69%
    18:00 +23°C° 0 mm 7 mps 762 mmHg 73%
    19:00 +22°C° 0 mm 6 mps 762 mmHg 77%
    20:00 +21°C° 0 mm 6 mps 763 mmHg 82%
    21:00 +20°C° 0 mm 6 mps 763 mmHg 82%
    22:00 +20°C° 0 mm 6 mps 763 mmHg 82%
    23:00 +20°C° 0 mm 5 mps 763 mmHg 82%

    Tomorrow, 31 March, Tuesday

    Time Temperature Precipitation Wind Pressure Humidity
    00:00 +20°C° 0 mm 5 mps 763 mmHg 83%
    01:00 +20°C° 0 mm 5 mps 763 mmHg 84%
    02:00 +20°C° 0 mm 5 mps 763 mmHg 84%
    03:00 +20°C° 0 mm 5 mps 763 mmHg 85%
    04:00 +20°C° 0 mm 5 mps 763 mmHg 85%
    05:00 +20°C° 0 mm 5 mps 763 mmHg 85%
    06:00 +20°C° 0.1 mm 6 mps 763 mmHg 81%
    07:00 +21°C° 0.1 mm 7 mps 764 mmHg 77%
    08:00 +22°C° 0.1 mm 7 mps 764 mmHg 73%
    09:00 +22°C° 0 mm 7 mps 764 mmHg 69%
    10:00 +23°C° 0 mm 7 mps 764 mmHg 64%
    11:00 +24°C° 0 mm 7 mps 763 mmHg 60%
    12:00 +24°C° 0 mm 7 mps 763 mmHg 58%
    13:00 +26°C° 0 mm 7 mps 762 mmHg 55%
    14:00 +26°C° 0 mm 8 mps 762 mmHg 53%
    15:00 +24°C° 0 mm 8 mps 762 mmHg 56%
    16:00 +23°C° 0 mm 8 mps 761 mmHg 60%
    17:00 +22°C° 0 mm 8 mps 761 mmHg 63%
    18:00 +22°C° 0 mm 8 mps 761 mmHg 66%
    19:00 +22°C° 0 mm 7 mps 761 mmHg 69%
    20:00 +21°C° 0 mm 7 mps 761 mmHg 72%
    21:00 +21°C° 0 mm 7 mps 761 mmHg 71%
    22:00 +21°C° 0 mm 7 mps 761 mmHg 70%
    23:00 +21°C° 0 mm 7 mps 761 mmHg 70%

    Day after tomorrow, 1 April, Wednesday

    Time Temperature Precipitation Wind Pressure Humidity
    00:00 +21°C° 0 mm 7 mps 761 mmHg 71%
    01:00 +20°C° 0 mm 7 mps 761 mmHg 73%
    02:00 +20°C° 0 mm 7 mps 760 mmHg 74%
    03:00 +20°C° 0 mm 7 mps 760 mmHg 76%
    04:00 +20°C° 0 mm 7 mps 760 mmHg 77%
    05:00 +20°C° 0 mm 7 mps 760 mmHg 79%
    06:00 +20°C° 0.1 mm 6 mps 760 mmHg 80%
    07:00 +20°C° 0.1 mm 6 mps 760 mmHg 80%
    08:00 +20°C° 0.1 mm 6 mps 760 mmHg 81%
    09:00 +20°C° 0.3 mm 6 mps 760 mmHg 81%
    10:00 +21°C° 0.3 mm 5 mps 760 mmHg 80%
    11:00 +21°C° 0.3 mm 5 mps 760 mmHg 80%
    12:00 +21°C° 2 mm 4 mps 759 mmHg 84%
    13:00 +20°C° 2 mm 3 mps 758 mmHg 88%
    14:00 +20°C° 2 mm 3 mps 758 mmHg 92%
    15:00 +20°C° 1.3 mm 3 mps 757 mmHg 93%
    16:00 +20°C° 1.3 mm 4 mps 757 mmHg 93%
    17:00 +20°C° 1.3 mm 4 mps 756 mmHg 93%
    18:00 +20°C° 9.6 mm 4 mps 757 mmHg 94%
    19:00 +20°C° 9.6 mm 5 mps 757 mmHg 94%
    20:00 +20°C° 9.6 mm 5 mps 757 mmHg 95%
    21:00 +19°C° 3.3 mm 5 mps 757 mmHg 94%
    22:00 +19°C° 3.3 mm 4 mps 758 mmHg 92%
    23:00 +19°C° 3.3 mm 4 mps 758 mmHg 91%

    2 April, Thursday

    Time Temperature Precipitation Wind Pressure Humidity
    00:00 +19°C° 0 mm 4 mps 758 mmHg 92%
    01:00 +19°C° 0 mm 4 mps 758 mmHg 92%
    02:00 +19°C° 0 mm 4 mps 758 mmHg 93%
    03:00 +17°C° 0.3 mm 5 mps 758 mmHg 92%
    04:00 +17°C° 0.3 mm 6 mps 758 mmHg 90%
    05:00 +17°C° 0.3 mm 8 mps 759 mmHg 88%
    06:00 +16°C° 0 mm 8 mps 759 mmHg 86%
    07:00 +16°C° 0 mm 8 mps 759 mmHg 84%
    08:00 +16°C° 0 mm 8 mps 759 mmHg 82%
    09:00 +17°C° 0 mm 8 mps 759 mmHg 77%
    10:00 +18°C° 0 mm 8 mps 759 mmHg 72%
    11:00 +18°C° 0 mm 8 mps 759 mmHg 68%
    12:00 +20°C° 0 mm 8 mps 759 mmHg 66%
    13:00 +19°C° 0 mm 9 mps 759 mmHg 63%
    14:00 +21°C° 0 mm 9 mps 759 mmHg 61%
    15:00 +20°C° 0 mm 8 mps 759 mmHg 61%
    16:00 +20°C° 0 mm 7 mps 759 mmHg 61%
    17:00 +20°C° 0 mm 7 mps 759 mmHg 61%
    18:00 +18°C° 0 mm 7 mps 760 mmHg 63%
    19:00 +17°C° 0 mm 6 mps 760 mmHg 65%
    20:00 +16°C° 0 mm 6 mps 760 mmHg 67%
    21:00 +15°C° 0 mm 6 mps 760 mmHg 71%
    22:00 +15°C° 0 mm 6 mps 760 mmHg 74%
    23:00 +14°C° 0 mm 6 mps 760 mmHg 78%

    3 April, Friday

    Time Temperature Precipitation Wind Pressure Humidity
    00:00 +13°C° 0 mm 6 mps 760 mmHg 80%
    01:00 +13°C° 0 mm 6 mps 760 mmHg 83%
    02:00 +11°C° 0 mm 6 mps 759 mmHg 85%
    03:00 +12°C° 0 mm 5 mps 759 mmHg 86%
    04:00 +12°C° 0 mm 5 mps 759 mmHg 86%
    05:00 +10°C° 0 mm 5 mps 759 mmHg 87%
    06:00 +13°C° 0 mm 4 mps 759 mmHg 84%
    07:00 +14°C° 0 mm 4 mps 759 mmHg 82%
    08:00 +15°C° 0 mm 4 mps 759 mmHg 79%
    09:00 +15°C° 0 mm 4 mps 759 mmHg 78%
    10:00 +17°C° 0 mm 3 mps 759 mmHg 78%
    11:00 +18°C° 0 mm 3 mps 759 mmHg 77%
    12:00 +19°C° 0 mm 3 mps 759 mmHg 73%
    13:00 +21°C° 0 mm 2 mps 758 mmHg 69%
    14:00 +23°C° 0 mm 2 mps 758 mmHg 65%
    15:00 +23°C° 0 mm 2 mps 758 mmHg 67%
    16:00 +23°C° 0 mm 1 mps 757 mmHg 69%
    17:00 +22°C° 0 mm 1 mps 757 mmHg 71%
    18:00 +22°C° 0 mm 1 mps 757 mmHg 73%
    19:00 +21°C° 0 mm 1 mps 757 mmHg 75%
    20:00 +19°C° 0 mm 2 mps 757 mmHg 78%
    21:00 +19°C° 0 mm 2 mps 757 mmHg 78%
    22:00 +19°C° 0 mm 2 mps 757 mmHg 78%
    23:00 +19°C° 0 mm 2 mps 757 mmHg 78%

    4 April, Saturday

    Time Temperature Precipitation Wind Pressure Humidity
    00:00 +19°C° 0 mm 3 mps 756 mmHg 79%
    01:00 +18°C° 0 mm 3 mps 756 mmHg 80%
    02:00 +17°C° 0 mm 3 mps 756 mmHg 81%
    03:00 +17°C° 0 mm 3 mps 756 mmHg 83%
    04:00 +17°C° 0 mm 3 mps 756 mmHg 84%
    05:00 +17°C° 0 mm 3 mps 756 mmHg 85%
    06:00 +18°C° 0 mm 4 mps 756 mmHg 80%
    07:00 +19°C° 0 mm 4 mps 756 mmHg 75%
    08:00 +20°C° 0 mm 4 mps 756 mmHg 69%
    09:00 +21°C° 0 mm 4 mps 756 mmHg 60%
    10:00 +23°C° 0 mm 5 mps 756 mmHg 50%
    11:00 +25°C° 0 mm 5 mps 756 mmHg 41%
    12:00 +26°C° 0 mm 5 mps 756 mmHg 40%
    13:00 +26°C° 0 mm 4 mps 756 mmHg 39%
    14:00 +27°C° 0 mm 4 mps 755 mmHg 38%
    15:00 +26°C° 0 mm 3 mps 755 mmHg 44%
    16:00 +25°C° 0 mm 2 mps 755 mmHg 50%
    17:00 +24°C° 0 mm 2 mps 755 mmHg 56%
    18:00 +23°C° 0 mm 2 mps 755 mmHg 59%
    19:00 +22°C° 0 mm 1 mps 756 mmHg 63%
    20:00 +20°C° 0 mm 1 mps 756 mmHg 66%
    21:00 +19°C° 0 mm 2 mps 756 mmHg 70%
    22:00 +18°C° 0 mm 2 mps 757 mmHg 74%
    23:00 +17°C° 0 mm 3 mps 757 mmHg 78%
    Show more